Regional Weather Roundup
Issued by NWS Green Bay, WI

Home | Current Version | Previous Version | Graphics & Text | Print | Product List | Glossary Off
Versions: 1 2 3 4 5 6 7 8 9 10 11 12 13 14 15 16 17 18 19 20 21 22 23 24 25 26 27 28 29 30 31 32 33 34 35 36 37 38 39 40 41 42 43 44 45 46 47 48 49 50

000
ASUS43 KGRB 200459
RWRGRB

NORTH-CENTRAL AND NORTHEAST WISCONSIN REGIONAL WEATHER ROUNDUP
NATIONAL WEATHER SERVICE GREEN BAY WI
1200 AM CDT SUN APR 20 2014

WIZ005-009-010>012-018-019-200600-
NORTH CENTRAL WISCONSIN

CITY           SKY/WX    TMP DP  RH WIND       PRES   REMARKS
IRONWOOD       MOCLDY    50  37  62 S16G24    29.98S
MANITOWISH WTR NOT AVBL
ARBOR VITAE    NOT AVBL
EAGLE RIVER    NOT AVBL
LAND O LAKES   NOT AVBL
RHINELANDER    LGT RAIN  46  36  68 S7        30.09F
PHILLIPS       NOT AVBL
ANTIGO         NOT AVBL
TOMAHAWK       NOT AVBL
MERRILL        NOT AVBL
$$

WIZ013-073-200600-
NORTHEAST WISCONSIN

CITY           SKY/WX    TMP DP  RH WIND       PRES   REMARKS
IRON MOUNTAIN  LGT RAIN  40  37  89 SE7       30.12F
MARINETTE      CLOUDY    45  34  65 SE6       30.17S
$$

WIZ017-030-035>037-045-200600-
CENTRAL WISCONSIN

CITY           SKY/WX    TMP DP  RH WIND       PRES   REMARKS
MEDFORD        NOT AVBL
WAUSAU         LGT RAIN  53  38  56 SE10      30.08F
MOSINEE        NOT AVBL
MARSHFIELD     CLOUDY    57  38  48 S9        30.07F
WISC RAPIDS    CLOUDY    60  35  39 S9G17     30.11F
STEVENS POINT  NOT AVBL
WAUPACA        NOT AVBL
SHAWANO        NOT AVBL
CLINTONVILLE   NOT AVBL
$$

WIZ038-039-048-051-200600-
FOX VALLEY

CITY           SKY/WX    TMP DP  RH WIND       PRES   REMARKS
NWS GREEN BAY  CLOUDY    50  38  63 S14       30.16F
APPLETON       NOT AVBL
OSHKOSH        CLOUDY    51  37  58 S13       30.16F
FOND DU LAC    CLOUDY    52  36  54 S18       30.17F
$$

WIZ022-050-052-200600-
EAST CENTRAL WISCONSIN

CITY           SKY/WX    TMP DP  RH WIND       PRES   REMARKS
STURGEON BAY   CLOUDY    45  30  57 S17G24    30.18F
MANITOWOC      NOT AVBL
SHEBOYGAN      PTCLDY    41  33  73 S9        30.21F
$$

LMZ563-521-522-541>543-200600-
LAKESHORE

STATION/POSITION TIME  TEMP    WIND        PRES    VSBY  WAVE
                       AIR SEA DIR/SP/G                  HT/PER
                 (UTC) (F)     (DEG/KT/KT) (MB)    (MI)  (FT/S)
SHEBOYGAN LKSHOR 0400   45     180/ 10/ 11 1024.1F
KEWAUNEE LKSHORE 0400   39     180/ 12/ 14 1023.1F
NORTHPORT PIER   0400   38     150/  6/ 12 1023.0S
SISTER BAY LKSHO 0400   40     150/ 13/ 17   N/A
MENOMINEE LKSHOR 0400   41     160/  7/  9 1022.4F
$$



USA.gov is the U.S. government's official web portal to all federal, state and local government web resources and services.